FW8113 Weather Reports


Display with metric or nautical units.
time (UTC)temp
F
wind
direction
speed
MPH
gust
MPH
rain 1hr
in
rain 24hr
in
rain mn
in
humidity
%
barometer
mb
20260504081616 46 108 0.0 0.0 0.00 0.00 0.00 70 1010.3
20260504081112 46 117 0.0 2.0 0.00 0.00 0.00 70 1010.3
20260504080609 46 112 0.0 0.0 0.00 0.00 0.00 69 1010.7
20260504080105 46 110 0.0 0.0 0.00 0.00 0.00 69 1010.7
20260504050421 46 98 0.0 0.0 0.00 0.00 0.00 69 1010.7
20260504045918 47 98 0.0 0.0 0.00 0.00 0.00 67 1011.0
20260504045414 46 98 0.0 0.0 0.00 0.00 0.00 68 1011.0
20260504044910 46 98 0.0 0.0 0.00 0.00 0.00 67 1011.0
20260504044408 46 98 0.0 0.0 0.00 0.00 0.00 67 1011.4
20260504043905 46 97 0.0 0.0 0.00 0.00 0.00 68 1011.7
20260504043402 46 97 0.0 0.0 0.00 0.00 0.00 68 1011.4
20260504042900 46 96 0.0 0.0 0.00 0.00 0.00 68 1011.7
20260504042355 46 95 0.0 0.0 0.00 0.00 0.00 68 1011.7
20260504041852 47 92 0.0 0.0 0.00 0.00 0.00 69 1011.7
20260504041348 47 99 0.0 0.0 0.00 0.00 0.00 68 1011.4
20260504040845 47 95 0.0 0.0 0.00 0.00 0.00 68 1011.7
20260504040342 47 104 0.0 0.0 0.00 0.00 0.00 65 1011.4
20260504035838 47 106 0.0 0.0 0.00 0.00 0.00 65 1011.4
20260504035336 47 106 0.0 0.0 0.00 0.00 0.00 65 1011.7
20260504034832 46 106 0.0 0.0 0.00 0.00 0.00 64 1011.0
20260504034330 46 104 0.0 0.0 0.00 0.00 0.00 65 1011.4
20260504033827 46 103 0.0 0.0 0.00 0.00 0.00 66 1011.4
20260504033325 46 102 0.0 0.0 0.00 0.00 0.00 66 1011.4
20260504032821 46 102 0.0 0.0 0.00 0.00 0.00 67 1011.0
20260504032319 45 102 0.0 0.0 0.00 0.00 0.00 66 1011.0
20260504031815 45 102 0.0 0.0 0.00 0.00 0.00 69 1011.4
20260504031313 45 102 0.0 0.0 0.00 0.00 0.00 69 1011.0
20260504030809 45 102 0.0 0.0 0.00 0.00 0.00 69 1011.0
20260504030306 44 102 0.0 0.0 0.00 0.00 0.00 69 1011.0
20260504025802 44 102 0.0 0.0 0.00 0.00 0.00 69 1011.4
20260504025259 44 102 0.0 0.0 0.00 0.00 0.00 69 1011.0
20260504024755 44 102 0.0 0.0 0.00 0.00 0.00 69 1011.0
20260504024252 44 101 0.0 0.0 0.00 0.00 0.00 68 1010.7
20260504023749 44 101 0.0 0.0 0.00 0.00 0.00 67 1011.0
20260504023245 44 98 0.0 0.0 0.00 0.00 0.00 67 1011.0
20260504022741 44 97 0.0 0.0 0.00 0.00 0.00 66 1010.7
20260504022238 44 97 0.0 0.0 0.00 0.00 0.00 65 1010.7
20260504021735 45 97 0.0 0.0 0.00 0.00 0.00 63 1011.0
20260504021232 45 97 0.0 0.0 0.00 0.00 0.00 63 1011.0
20260504020729 46 97 0.0 0.0 0.00 0.00 0.00 62 1011.0
20260504020226 46 97 0.0 0.0 0.00 0.00 0.00 61 1011.0
20260504015722 46 97 0.0 0.0 0.00 0.00 0.00 61 1011.0
20260504015218 46 97 0.0 0.0 0.00 0.00 0.00 60 1011.0
20260504014714 46 96 0.0 0.0 0.00 0.00 0.00 59 1011.0
20260504014211 47 96 0.0 0.0 0.00 0.00 0.00 59 1011.0
20260504013709 47 96 0.0 0.0 0.00 0.00 0.00 56 1011.0
20260504013206 48 96 0.0 0.0 0.00 0.00 0.00 55 1011.0
20260504012703 48 96 0.0 0.0 0.00 0.00 0.00 54 1011.0
20260504012201 49 96 0.0 0.0 0.00 0.00 0.00 53 1010.7
20260504011657 49 96 0.0 0.0 0.00 0.00 0.00 52 1011.0
20260504011154 50 96 0.0 0.0 0.00 0.00 0.00 51 1010.7
20260504010650 50 96 0.0 0.0 0.00 0.00 0.00 50 1010.7
20260504010145 51 96 0.0 0.0 0.00 0.00 0.00 50 1010.7
20260504005643 51 95 0.0 0.0 0.00 0.00 0.00 49 1010.7
20260504005139 51 124 0.0 0.0 0.00 0.00 0.00 46 1010.7
20260504004638 51 122 0.0 2.0 0.00 0.00 0.00 46 1010.3
20260504004134 51 119 0.0 0.0 0.00 0.00 0.00 45 1010.3
20260504003631 52 67 2.0 3.0 0.00 0.00 0.00 45 1010.7
20260504003127 52 92 0.0 0.0 0.00 0.00 0.00 44 1010.3
20260504002624 52 123 0.0 0.0 0.00 0.00 0.00 44 1010.3
20260504002122 52 120 0.0 0.0 0.00 0.00 0.00 43 1010.3
20260504001619 53 177 1.0 3.0 0.00 0.00 0.00 43 1010.7
20260504001115 53 149 0.0 0.0 0.00 0.00 0.00 42 1010.3
20260504000613 53 161 1.0 2.0 0.00 0.00 0.00 41 1010.0
20260504000110 53 121 2.0 3.0 0.00 0.00 0.00 40 1010.0
20260503235608 53 229 2.0 2.0 0.00 0.00 0.00 41 1010.0
20260503235105 54 195 2.0 3.0 0.00 0.00 0.00 40 1010.0
20260503234603 54 153 3.0 3.0 0.00 0.00 0.00 39 1010.0
20260503234100 54 86 0.0 0.0 0.00 0.00 0.00 40 1010.0
20260503233556 54 33 4.0 7.0 0.00 0.00 0.00 39 1009.7
20260503233052 54 172 1.0 2.0 0.00 0.00 0.00 39 1009.7
20260503232550 55 99 1.0 2.0 0.00 0.00 0.00 37 1010.0
20260503232047 55 209 6.0 9.0 0.00 0.00 0.00 37 1009.7
20260503231545 55 273 5.0 5.0 0.00 0.00 0.00 37 1009.3
20260503231041 55 144 1.0 2.0 0.00 0.00 0.00 35 1009.0
20260503230538 55 37 3.0 3.0 0.00 0.00 0.00 35 1009.3
20260503230036 55 63 4.0 7.0 0.00 0.00 0.00 35 1009.3
20260503225532 55 36 4.0 5.0 0.00 0.00 0.00 34 1009.3
20260503225027 56 84 3.0 3.0 0.00 0.00 0.00 34 1009.3
20260503224525 56 199 5.0 7.0 0.00 0.00 0.00 33 1009.0
20260503224023 57 224 5.0 9.0 0.00 0.00 0.00 32 1009.0
20260503223520 57 179 7.0 9.0 0.00 0.00 0.00 31 1009.0
20260503223016 57 199 3.0 3.0 0.00 0.00 0.00 31 1009.0
20260503222514 57 283 4.0 5.0 0.00 0.00 0.00 31 1009.0
20260503222012 57 198 4.0 7.0 0.00 0.00 0.00 30 1009.0
20260503221510 58 97 9.0 14.0 0.00 0.00 0.00 30 1009.0
20260503221007 57 60 3.0 3.0 0.00 0.00 0.00 30 1009.3
20260503220503 57 155 3.0 3.0 0.00 0.00 0.00 30 1009.0
20260503220000 57 2 6.0 9.0 0.00 0.00 0.00 28 1009.0
20260503215457 58 51 2.0 5.0 0.00 0.00 0.00 29 1009.0
20260503214954 58 201 3.0 5.0 0.00 0.00 0.00 29 1009.0
20260503214452 58 166 5.0 7.0 0.00 0.00 0.00 28 1009.0
20260503213949 58 260 3.0 3.0 0.00 0.00 0.00 30 1009.3
20260503213447 58 165 4.0 10.0 0.00 0.00 0.00 28 1009.0
20260503212943 58 183 7.0 9.0 0.00 0.00 0.00 28 1009.0
20260503212441 58 202 4.0 7.0 0.00 0.00 0.00 29 1009.3
20260503211938 57 91 2.0 3.0 0.00 0.00 0.00 30 1009.3
20260503211435 57 159 2.0 3.0 0.00 0.00 0.00 30 1009.3
20260503210930 57 257 6.0 9.0 0.00 0.00 0.00 31 1009.0
20260503210427 58 19 10.0 14.0 0.00 0.00 0.00 29 1009.3
20260503205922 57 187 2.0 3.0 0.00 0.00 0.00 31 1009.0
20260503205420 56 216 2.0 3.0 0.00 0.00 0.00 31 1009.0
20260503204916 57 165 3.0 5.0 0.00 0.00 0.00 30 1009.0
20260503204413 57 276 5.0 7.0 0.00 0.00 0.00 30 1009.3
20260503203910 57 125 0.0 2.0 0.00 0.00 0.00 34 1009.3
20260503203408 56 62 6.0 9.0 0.00 0.00 0.00 33 1009.3
20260503202904 57 179 6.0 10.0 0.00 0.00 0.00 31 1009.3
20260503202403 57 191 3.0 3.0 0.00 0.00 0.00 37 1009.7
20260503201901 56 176 3.0 3.0 0.00 0.00 0.00 35 1009.7
20260503201357 55 87 5.0 7.0 0.00 0.00 0.00 36 1009.7
20260503200855 54 95 2.0 3.0 0.00 0.00 0.00 37 1009.7
20260503200350 54 130 0.0 0.0 0.00 0.00 0.00 37 1009.7
20260503195848 54 225 7.0 12.0 0.00 0.00 0.00 37 1009.7
20260503195344 54 220 10.0 12.0 0.00 0.00 0.00 36 1009.7
20260503194842 54 195 6.0 7.0 0.00 0.00 0.00 38 1009.7
20260503194337 55 150 4.0 5.0 0.00 0.00 0.00 38 1010.0
20260503193834 55 149 4.0 7.0 0.00 0.00 0.00 38 1010.0
20260503193330 55 93 2.0 5.0 0.00 0.00 0.00 38 1010.0
20260503192826 56 298 3.0 5.0 0.00 0.00 0.00 38 1010.0
20260503192321 55 34 4.0 7.0 0.00 0.00 0.00 39 1010.0
20260503191818 54 350 3.0 5.0 0.00 0.00 0.00 42 1010.0
20260503191315 55 14 3.0 5.0 0.00 0.00 0.00 38 1010.7
20260503190812 55 220 5.0 7.0 0.00 0.00 0.00 37 1010.3
20260503190309 54 219 3.0 5.0 0.00 0.00 0.00 37 1010.3
20260503185806 54 193 3.0 5.0 0.00 0.00 0.00 39 1010.3
20260503185304 55 13 5.0 7.0 0.00 0.00 0.00 37 1010.3
20260503184801 55 100 3.0 3.0 0.00 0.00 0.00 40 1010.7
20260503184258 55 142 0.0 0.0 0.00 0.00 0.00 39 1010.7
20260503183754 55 4 5.0 5.0 0.00 0.00 0.00 39 1010.7
20260503183252 53 30 8.0 10.0 0.00 0.00 0.00 41 1010.7
20260503182749 52 82 2.0 2.0 0.00 0.00 0.00 44 1010.7
20260503182248 52 203 7.0 12.0 0.00 0.00 0.00 42 1010.7
20260503181744 53 46 5.0 9.0 0.00 0.00 0.00 41 1010.7
20260503181241 52 27 4.0 5.0 0.00 0.00 0.00 43 1010.7
20260503180738 51 261 8.0 14.0 0.00 0.00 0.00 43 1010.7
20260503180236 50 53 3.0 5.0 0.00 0.00 0.00 44 1010.7
20260503175732 51 187 3.0 3.0 0.00 0.00 0.00 45 1011.0
20260503175230 50 207 3.0 9.0 0.00 0.00 0.00 46 1011.0
20260503174726 50 162 1.0 2.0 0.00 0.00 0.00 47 1010.7
20260503174225 49 304 3.0 5.0 0.00 0.00 0.00 47 1011.0
20260503173725 49 252 3.0 3.0 0.00 0.00 0.00 46 1011.0
20260503173221 50 75 8.0 12.0 0.00 0.00 0.00 45 1011.0
20260503172718 50 192 4.0 5.0 0.00 0.00 0.00 47 1011.0
20260503172215 50 222 3.0 5.0 0.00 0.00 0.00 45 1011.0
20260503171711 50 220 2.0 2.0 0.00 0.00 0.00 47 1011.0
20260503171209 50 177 13.0 15.0 0.00 0.00 0.00 43 1011.0
20260503170705 50 136 2.0 3.0 0.00 0.00 0.00 46 1010.7
20260503170203 49 195 2.0 3.0 0.00 0.00 0.00 48 1011.0
20260503160124 50 292 8.0 10.0 0.00 0.00 0.00 45 1011.0
20260503150554 50 265 3.0 7.0 0.00 0.00 0.00 48 1011.4
20260503130944 45 341 2.0 3.0 0.00 0.00 0.00 65 1011.7
20260503130442 45 210 4.0 5.0 0.00 0.00 0.00 66 1011.7
20260503110326 41 92 0.0 0.0 0.00 0.00 0.00 74 1011.4
20260503100252 40 122 0.0 0.0 0.00 0.00 0.00 75 1011.0